Weather Roundup
Issued by NWS Springfield, MO

Home | Current Version | Previous Version | Text Only | Print | Product List | Glossary On
Versions: 1 2 3 4 5 6 7 8 9 10 11 12 13 14 15 16 17 18 19 20 21 22 23 24 25 26 27 28 29 30 31 32 33 34 35 36 37 38 39 40 41 42 43 44 45 46 47 48 49 50
000
NZUS99 KSGF 300359
HRRSGF

HOURLY WEATHER
NATIONAL WEATHER SERVICE SPRINGFIELD MO
1000 PM CST THU JAN 29 2015

......SGF CWA......

CITY           SKY/WX    TMP DP  RH WIND       PRES   REMARKS
SPRINGFIELD    CLEAR     28  23  81 NW8       30.46R WCI  20
JOPLIN         CLEAR     33  26  75 N5        30.51R WCI  29
WEST PLAINS    CLEAR     36  26  67 N10       30.41S WCI  28
ROLLA          CLOUDY    35  25  66 NW9       30.41S WCI  28
OSAGE BEACH    CLOUDY    37  23  56 NW8       30.46S WCI  31

......SURROUNDING SGF CWA......

CITY           SKY/WX    TMP DP  RH WIND       PRES   REMARKS
CHANUTE        CLEAR     32  26  78 N6        30.52R WCI  26
PARSONS        CLEAR     34  27  75 N6        30.53R WCI  29
COFFEYVILLE    CLEAR     33  26  75 N6        30.53R WCI  28
EMPORIA        CLEAR     29  24  82 NW3       30.51S
SILOAM SPRINGS CLEAR     36  23  60 CALM      30.49R
HARRISON AR    CLEAR     33  27  78 NW8       30.45R WCI  26
NEAR YELLVILLE CLEAR     37  25  60 NW9       30.44S WCI  31

......KANSAS AND MISSOURI......

CITY           SKY/WX    TMP DP  RH WIND       PRES   REMARKS
KANSAS CTY INT CLEAR     28  22  78 N7        30.51R WCI  21
DOWNTOWN KC    CLEAR     32  23  69 CALM      30.52S
COLUMBIA       CLOUDY    36  25  64 NW16      30.46R WCI  26
SEDALIA        CLOUDY    36  25  64 NW15      30.51R WCI  27
ST JOSEPH      CLEAR     26  21  81 W6        30.54R WCI  19
ST LOUIS       CLOUDY    37  25  61 N12       30.42R WCI  29
SPIRIT OF STL  CLOUDY    37  25  61 NW12      30.42R WCI  29
KIRKSVILLE     CLEAR     29  22  75 N12       30.45S WCI  19
WICHITA        FAIR      34  23  64 NW6       30.52S WCI  29
TOPEKA         CLEAR     25  22  88 CALM      30.54R
OLATHE         CLEAR     31  24  75 N5        30.50S WCI  26

......TENNESSEE......

CITY           SKY/WX    TMP DP  RH WIND       PRES   REMARKS
MEMPHIS        CLOUDY    45  29  53 N13G20    30.40R
NASHVILLE      CLOUDY    41  32  70 NW15      30.32R

......ARKANSAS.......

CITY           SKY/WX    TMP DP  RH WIND       PRES   REMARKS
FAYETTEVILLE   CLEAR     33  27  78 N5        30.48R WCI  29
FT SMITH       PTCLDY    39  31  72 CALM      30.49R
LITTLE ROCK    PTCLDY    41  28  60 N8        30.45S

......OKLAHOMA.......

CITY           SKY/WX    TMP DP  RH WIND       PRES   REMARKS
TULSA          MOCLDY    35  28  75 N6        30.52R WCI  30
PONCA CITY     PTCLDY    29  23  78 CALM      30.53R
MCALESTER      PTCLDY    44  30  57 NE6       30.49R
OKLAHOMA CITY  CLOUDY    45  27  49 NE9       30.49S

......IOWA............

CITY           SKY/WX    TMP DP  RH WIND       PRES   REMARKS
DES MOINES     CLEAR     28  19  69 N14       30.50R WCI  17
QUAD CITIES    CLOUDY    30  19  63 NW21G31   30.38R WCI  17

......ILLINOIS........

CITY           SKY/WX    TMP DP  RH WIND       PRES   REMARKS
QUINCY         CLOUDY    32  22  66 NW21G26   30.42R WCI  20
CHICAGO        CLOUDY    33  21  61 NW14      30.24R WCI  23



USA.gov is the U.S. government's official web portal to all federal, state and local government web resources and services.